New Philadelphia, OH

9:15 AM EDT on May 30, 2017 (GMT -0400)
Clever

Weather History for KPHD - January, 2013

Change the Weather History Date:

Thursday, January 17, 2013

  Actual Average Record
Temperature  
Mean Temperature 33 °F 29 °F  
Max Temperature 37 °F 37 °F 61 °F (2017)
Min Temperature 29 °F 21 °F -18 °F (1977)
Degree Days  
Heating Degree Days 32 36  
Month to date heating degree days 535 612  
Since 1 July heating degree days 2635 2773  
Cooling Degree Days 0 0  
Month to date cooling degree days 0 0  
Year to date cooling degree days 0 0  
Moisture  
Dew Point 25 °F    
Average Humidity 67    
Maximum Humidity 75    
Minimum Humidity 58    
Precipitation  
Precipitation 0.00 in 0.08 in 0.47 in (1999)
Month to date precipitation 0.58 1.54  
Year to date precipitation 0.58 1.54  
Sea Level Pressure  
Sea Level Pressure 30.15 in    
Wind  
Wind Speed 5 mph (West)    
Max Wind Speed 20 mph    
Max Gust Speed 26 mph    
Visibility 10 miles    
Events      
T = Trace of Precipitation, MM = Missing Value Source: NWS Daily Summary

Daily Weather History Graph

Daily Weather History Graph

Search for Another Location

Airport or City:

Trip Planner

Search our weather history database for the weather conditions in past years. The results will help you decide how hot, cold, wet, or windy it might be!

Date:

Astronomy

Jan. 17, 2013 Rise Set
Actual Time 7:45 AM EST 5:26 PM EST
Civil Twilight 7:16 AM EST 5:56 PM EST
Nautical Twilight 6:42 AM EST 6:29 PM EST
Astronomical Twilight 6:10 AM EST 7:02 PM EST
Moon 10:50 AM EST (1/17) No Moon Set
Length of Visible Light 10h 40m
Length of Day
9h 40m
Waxing Crescent, 37% of the Moon is Illuminated
Jan 17
Waxing Crescent
Jan 18
First Quarter
Jan 26
Full
Feb 3
Last Quarter
Feb 10
New

Hourly Weather History & Observations

Time (EST) Temp. Windchill Dew Point Humidity Pressure Visibility Wind Dir Wind Speed Gust Speed Precip Events Conditions
12:22 AM 33.8 °F 27.7 °F 26.6 °F 75% 30.04 in 8.0 mi SSW 6.9 mph - N/A   Mostly Cloudy
12:45 AM 33.8 °F 29.6 °F 26.6 °F 75% 30.05 in 9.0 mi SW 4.6 mph - N/A   Overcast
12:53 AM 33.1 °F 27.7 °F 26.1 °F 75% 30.08 in 9.0 mi SW 5.8 mph - N/A   Overcast
1:53 AM 33.1 °F 28.7 °F 26.1 °F 75% 30.09 in 9.0 mi WSW 4.6 mph - N/A   Overcast
2:33 AM 33.8 °F 30.8 °F 24.8 °F 70% 30.07 in 10.0 mi WSW 3.5 mph - N/A   Overcast
2:53 AM 33.1 °F 27.7 °F 25.0 °F 72% 30.11 in 10.0 mi WSW 5.8 mph - N/A   Overcast
3:00 AM 33.8 °F 28.6 °F 24.8 °F 70% 30.08 in 10.0 mi WSW 5.8 mph - N/A   Overcast
3:22 AM 33.8 °F 27.7 °F 24.8 °F 70% 30.08 in 10.0 mi WSW 6.9 mph - N/A   Overcast
3:53 AM 33.1 °F 27.7 °F 25.0 °F 72% 30.11 in 10.0 mi WSW 5.8 mph - N/A   Overcast
4:53 AM 33.1 °F 30.0 °F 25.0 °F 72% 30.12 in 10.0 mi West 3.5 mph - N/A   Overcast
5:53 AM 33.1 °F 30.0 °F 25.0 °F 72% 30.13 in 10.0 mi WSW 3.5 mph - N/A   Overcast
7:53 AM 33.1 °F - 25.0 °F 72% 30.15 in 9.0 mi Calm Calm - N/A   Overcast
8:53 AM 34.0 °F 31.0 °F 26.1 °F 73% 30.21 in 9.0 mi West 3.5 mph - N/A   Overcast
9:50 AM 33.8 °F 30.8 °F 26.6 °F 75% 30.19 in 9.0 mi WSW 3.5 mph - N/A   Scattered Clouds
9:53 AM 34.0 °F 29.8 °F 26.1 °F 73% 30.22 in 9.0 mi Variable 4.6 mph - N/A   Partly Cloudy
10:53 AM 35.1 °F 30.1 °F 26.1 °F 70% 30.20 in 8.0 mi NW 5.8 mph - N/A   Partly Cloudy
11:53 AM 36.0 °F 31.1 °F 27.0 °F 70% 30.17 in 9.0 mi NW 5.8 mph - N/A   Mostly Cloudy
12:53 PM 37.0 °F 31.0 °F 27.0 °F 67% 30.15 in 9.0 mi WNW 8.1 mph - N/A   Scattered Clouds
1:53 PM 37.0 °F 32.4 °F 26.1 °F 65% 30.13 in 10.0 mi NW 5.8 mph - N/A   Overcast
2:14 PM 37.4 °F 34.9 °F 24.8 °F 60% 30.11 in 10.0 mi Variable 3.5 mph - N/A   Overcast
2:53 PM 37.0 °F 32.4 °F 25.0 °F 62% 30.13 in 10.0 mi WNW 5.8 mph - N/A   Mostly Cloudy
3:16 PM 37.4 °F 34.9 °F 24.8 °F 60% 30.12 in 10.0 mi West 3.5 mph - N/A   Mostly Cloudy
3:53 PM 37.0 °F 34.5 °F 24.1 °F 59% 30.14 in 10.0 mi West 3.5 mph - N/A   Partly Cloudy
4:53 PM 36.0 °F 33.3 °F 25.0 °F 64% 30.15 in 10.0 mi WSW 3.5 mph - N/A   Partly Cloudy
5:53 PM 35.1 °F 32.2 °F 25.0 °F 67% 30.19 in 10.0 mi SSW 3.5 mph - N/A   Mostly Cloudy
6:53 PM 34.0 °F - 26.1 °F 73% 30.19 in 10.0 mi Calm Calm - N/A   Overcast
7:53 PM 34.0 °F 31.0 °F 25.0 °F 70% 30.21 in 10.0 mi WSW 3.5 mph - N/A   Mostly Cloudy
8:53 PM 34.0 °F 29.8 °F 25.0 °F 70% 30.21 in 10.0 mi WSW 4.6 mph - N/A   Scattered Clouds
9:53 PM 34.0 °F 25.5 °F 24.1 °F 67% 30.22 in 10.0 mi WNW 11.5 mph 17.3 mph N/A   Clear
10:53 PM 30.9 °F 21.2 °F 18.0 °F 59% 30.23 in 10.0 mi NW 12.7 mph 20.7 mph N/A   Partly Cloudy
11:53 PM 30.0 °F 18.7 °F 17.1 °F 59% 30.27 in 10.0 mi NW 16.1 mph 26.5 mph N/A   Overcast